Regional Weather Roundup
Issued by NWS

Home | Current Version | Previous Version | Graphics & Text | Print | Product List | Glossary On
Versions: 1 2 3 4 5 6 7 8 9 10 11 12 13 14 15 16 17 18 19 20 21 22 23 24 25 26 27 28 29 30 31 32 33 34 35 36 37 38 39 40 41 42 43 44 45 46 47 48 49 50
000
ASUS43 KOAX 301202
RWRNE

WEATHER ROUNDUP FOR NEBRASKA
NATIONAL WEATHER SERVICE OMAHA NE
700 AM CDT SUN AUG 30 2015

NOTES: SATELLITE DATA IS BEING USED TO AUGMENT CLOUD COVER ABOVE
       12000 FEET.
       "FAIR" INDICATES FEW OR NO CLOUDS BELOW 12,000 FEET WITH NO
       SIGNIFICANT WEATHER AND/OR OBSTRUCTIONS TO VISIBILITY.

  * THESE STATIONS DO NOT REPORT WEATHER SUCH AS RAIN...SNOW OR FOG.

NEZ001>004-019>022-054>056-301300-
NEBRASKA PANHANDLE

CITY           SKY/WX    TMP DP  RH WIND       PRES   REMARKS
SCOTTSBLUFF    CLEAR     60  45  57 SE6       29.98F
6HR MIN TEMP:  60; 6HR MAX TEMP:  76;

ALLIANCE       PTCLDY    58  45  62 SE10      29.98F
6HR MIN TEMP:  56; 6HR MAX TEMP:  64;

CHADRON        PTCLDY    67  42  40 SE7       29.90S
6HR MIN TEMP:  63; 6HR MAX TEMP:  78;

KIMBALL        CLEAR     55  42  60 SW8       30.04S
SIDNEY         PTCLDY    63  45  51 S10       30.03F
6HR MIN TEMP:  58; 6HR MAX TEMP:  69;

$$

NEZ057>060-069>072-079>082-301300-
SOUTHWEST NEBRASKA

CITY           SKY/WX    TMP DP  RH WIND       PRES   REMARKS
NORTH PLATTE   CLEAR     57  52  83 CALM      30.03S
6HR MIN TEMP:  56; 6HR MAX TEMP:  68;

IMPERIAL       PTCLDY    56  47  71 S6        30.04S
6HR MIN TEMP:  55; 6HR MAX TEMP:  70;

MCCOOK         CLEAR     57  51  80 CALM      30.04S
6HR MIN TEMP:  56; 6HR MAX TEMP:  71;

$$

NEZ005>010-023>029-035>040-094-301300-
NORTH CENTRAL NEBRASKA

CITY           SKY/WX    TMP DP  RH WIND       PRES   REMARKS
VALENTINE      PTCLDY    61  54  77 S12       29.95S
6HR MIN TEMP:  61; 6HR MAX TEMP:  71;

AINSWORTH      CLEAR     63  55  74 S12       29.97S
BROKEN BOW     CLEAR     56  53  90 CALM      30.02S
6HR MIN TEMP:  56; 6HR MAX TEMP:  66; 6HR PCP: TRACE;

O`NEILL        CLEAR     61  59  94 S6        29.99R
ORD            MOCLDY    55  55 100 SE5       30.01R FOG
6HR MIN TEMP:  54; 6HR MAX TEMP:  60;

$$

NEZ041-046>049-061>064-073>077-083>087-301300-
SOUTH CENTRAL NEBRASKA

CITY           SKY/WX    TMP DP  RH WIND       PRES   REMARKS
GRAND ISLAND   CLOUDY    62  61  96 S6        30.05S
6HR MIN TEMP:  61; 6HR MAX TEMP:  63;

AURORA         FOG       63  63 100 W8        30.04S VSB 1
HASTINGS       FOG       61  60  97 SW6       30.05R VSB 1/2
6HR MIN TEMP:  61; 6HR MAX TEMP:  63;

KEARNEY *      CLOUDY    57  55  94 S7        30.04S VSB<1/4
YORK           FOG       61  61 100 S5        30.05S VSB 1/4
$$

NEZ011>018-030>034-042>045-301300-
NORTHEAST NEBRASKA

CITY           SKY/WX    TMP DP  RH WIND       PRES   REMARKS
NORFOLK        CLOUDY    63  62  97 SW9       30.02R FOG
6HR MIN TEMP:  62; 6HR MAX TEMP:  63;

BLAIR          FOG       61  59  94 S10       30.03S VSB 1/2
COLUMBUS *     CLOUDY   N/A N/A N/A SW5       30.04R
FREMONT        CLOUDY    62  61  95 S3        30.04S FOG
TEKAMAH        CLOUDY    63  62  97 S8        30.03R
6HR MIN TEMP:  62; 6HR MAX TEMP:  65;

$$

NEZ050>053-065>068-078-088>093-301300-
SOUTHEAST NEBRASKA

CITY           SKY/WX    TMP DP  RH WIND       PRES   REMARKS
LINCOLN        CLOUDY    63  61  93 SW7       30.05R
6HR MIN TEMP:  62; 6HR MAX TEMP:  63;

OMAHA EPPLEY   FOG       63  62  97 S6        30.03S VSB 1
6HR MIN TEMP:  61; 6HR MAX TEMP:  68;

FALLS CITY     CLOUDY    59  58  96 CALM      30.04R
6HR MIN TEMP:  56; 6HR MAX TEMP:  59;

PLATTSMOUTH    FOG       60  59  97 W5        30.04S VSB 1/4
$$

NEZ044-045-051>053-067-301300-
OMAHA AREA

CITY           SKY/WX    TMP DP  RH WIND       PRES   REMARKS
OMAHA EPPLEY   FOG       63  62  97 S6        30.03S VSB 1
6HR MIN TEMP:  61; 6HR MAX TEMP:  68;

BLAIR          FOG       61  59  94 S10       30.03S VSB 1/2
FREMONT        CLOUDY    62  61  95 S3        30.04S FOG
OFFUTT AFB     FOG       61  61  99 S2        30.03R VSB 1/4
PLATTSMOUTH    FOG       60  59  97 W5        30.04S VSB 1/4
WAHOO          CLOUDY    62  61  97 SW3       30.04S FOG
$$



USA.gov is the U.S. government's official web portal to all federal, state and local government web resources and services.